QIANFAN-91 (66033 NORAD) Tracking and Keplerian Element Data

This shows tracking and keplerian element data for the satellite.

Feedback or suggestion? Click here.




ElementValue
Catalog66033
NameQIANFAN-91
Epoch Orbit900
Epoch Day354.23514886
Epoch Year2025
RAAN61.3674
Inclination88.9949
Eccentricity0.0017156
Argument of Perigee23.7792
Mean Anonmoly336.4158
Mean Motion13.69020891
Decay Rate4.9E-07
L11 66033U 25233A 25354.23514886 .00000049 00000+0 41974-4 0 9990
L22 66033 88.9949 61.3674 0017156 23.7792 336.4158 13.69020891 9002



Live tracking and technical data element details for QIANFAN-91 (NORAD 66033). QIANFAN-91 can be tracked NOW for your location showing map with azimuth and elevation plus other details from your city location.







IsCatalogInMostPopularTable: catalog: 66033, numindb: 6
Update: records affected: 1



GetName: 66033 QIANFAN-91

Hit Count: updated at: Mon, 20 Apr 2026 11:22:59 GMT